Location: Little Arabia
(41.4620°N, 81.7687°W)
Time: 20:52:08
(UTC+00:00)

CZ-2D R/B - Pass Details

Date: 29 October 2020
Orbit: 522 x 537 km, 97.4° (Epoch: 03 December)

Event Time Altitude Azimuth Distance (km) Brightness Sun altitude
Rises 23:40:10 0° 162° (SSE) 2,648 6.7 -14.6°
Reaches altitude 10° 23:42:16 10° 160° (SSE) 1,761 5.7 -15.0°
Maximum altitude 23:46:02 71° 77° (ENE) 558 3.1 -15.7°
Drops below altitude 10° 23:49:50 10° 353° (N) 1,769 5.9 -16.4°
Sets 23:51:57 0° 351° (N) 2,662 6.9 -16.8°
